Simultaneous Nadir Overpasses (SNOs) Predictions

Prediction of SNOs between GOES-16 and LANDSAT-8 Satellite Orbit:

Table of predicted SNOs for the next 14.0 days since TLE Epoch: 7/31/2021
Index Date Time (GOES-16) GOES-16 Lat,Lon LANDSAT-8 Lat,Lon Distance(km) Time Diff (sec)
1 07/31/2021 15:15:18 0.01, -75.23 0.05, -75.39 17.99 80
2 08/02/2021 15:00:28 0.01, -75.24 -0.60, -72.44 319.68 80
3 08/03/2021 03:24:32 -0.02, -75.22 -0.53, -77.62 272.91 80
4 08/05/2021 03:09:42 -0.02, -75.24 0.12, -74.67 65.09 80
5 08/07/2021 02:57:31 -0.02, -75.26 0.72, -71.71 403.36 80
6 08/07/2021 15:21:27 0.03, -75.29 0.36, -76.87 178.99 80
7 08/09/2021 15:06:36 0.03, -75.32 -0.24, -73.91 160.01 80
8 08/10/2021 03:30:41 -0.04, -75.30 -0.83, -79.11 431.85 80
9 08/11/2021 14:54:26 0.02, -75.35 -0.91, -70.96 499.57 80
10 08/12/2021 03:18:30 -0.04, -75.34 -0.22, -76.14 92.12 80
